KBTVKRUT

Guest
Details From KBTV - Burlington Intl
To KRUT - Rutland State
Flight Number -
Tags Routegen
Created
Modified
Stats Distance 58 nm / 108 km
Max Altitude 0 ft / 0 m
Waypoints 2
Social Downloads 2
Likes 0
Share VATSIM

Download

Looking for another format? Having issues loading an existing format? Contact us
Advertisement - Login to hide

Notes

None

Route

KBTV KRUT

ID Type Via Altitude Latitude Longitude Leg Dist Tot Dist Heading (true) Name
O KBTV APT - 0 ft / 0 m 44.48068˚ -73.16588˚ - 0 nm - -
O KRUT APT - 0 ft / 0 m 43.52488˚ -72.94948˚ 58 nm 58 nm 171° / 171° -

Altitude Profile

Advertisement - Login to hide

KBTV

Details ICAO KBTV (BTV)
Name BURLINGTON INTL
Region United States
Timezone America/New_York (UTC-4.0)
Stats Elevation 334 ft / 102 m (AMSL)
Location 44.471252° -73.153113°
Runways 2
Magnetic Variation 14.281° W

METAR

KBTV 260754Z AUTO 00000KT 10SM OVC055 18/16 A2969 RMK AO2 SLP053 T01780161

Decode

TAF

KBTV 260535Z 2606/2706 VRB04KT P6SM VCSH OVC070 FM261500 29005KT P6SM VCSH BKN050 FM261900 35006KT P6SM VCSH OVC028 FM270000 VRB03KT P6SM OVC015

Decode

Departure Runways

ID Width Length Bearing (true) Bearing (mag) Surface Threshold Offset Overrun Length
01 75 ft / 23 m 4,115 ft / 1,254 m 351.45° 5.73° Asphalt 226 ft / 69 m 0 ft / 0 m
15 150 ft / 46 m 8,311 ft / 2,533 m 130.91° 145.19° Asphalt 0 ft / 0 m 1,004 ft / 306 m
19 75 ft / 23 m 4,115 ft / 1,254 m 171.45° 185.73° Asphalt 505 ft / 154 m 0 ft / 0 m
33 150 ft / 46 m 8,311 ft / 2,533 m 310.93° 325.21° Asphalt 502 ft / 153 m 522 ft / 159 m

KRUT

Details ICAO KRUT (RUT)
Name RUTLAND STATE
Region United States
Timezone America/New_York (UTC-4.0)
Stats Elevation 787 ft / 240 m (AMSL)
Location 43.529381° -72.949582°
Runways 2
Magnetic Variation 14.110° W

METAR

KRUT 260756Z AUTO 25003KT 10SM OVC065 21/10 A2975 RMK AO2 SLP080 T02110100 $

Decode

TAF

KRUT 260535Z 2606/2706 VRB04KT P6SM BKN080 FM261600 VRB04KT P6SM VCSH BKN100 FM262200 03006KT P6SM VCSH BKN050 FM270000 VRB04KT P6SM OVC025 FM270300 11009KT P6SM OVC015

Decode

Destination Runways

ID Width Length Bearing (true) Bearing (mag) Surface Threshold Offset Overrun Length
01 100 ft / 30 m 5,005 ft / 1,526 m 358.50° 12.61° Asphalt 0 ft / 0 m 0 ft / 0 m
13 75 ft / 23 m 3,164 ft / 965 m 118.72° 132.83° Asphalt 0 ft / 0 m 0 ft / 0 m
19 100 ft / 30 m 5,005 ft / 1,526 m 178.50° 192.61° Asphalt 0 ft / 0 m 0 ft / 0 m
31 75 ft / 23 m 3,164 ft / 965 m 298.72° 312.83° Asphalt 0 ft / 0 m 0 ft / 0 m

Approach Navaids

Runway Type Ident Frequency Range Bearing (true) Bearing (mag) Slope Elevation
19 Localiser IRUT 111.70 MHz 18 nm / 33 km 170.19° 184.30° - 787 ft / 240 m (AMSL)
19 DME IRUT 111.70 MHz 18 nm / 33 km - - - 787 ft / 240 m (AMSL)